Weather in Karpuninskiy

Russia / Sverdlovsk Oblast     58°43′11″N   61°47′58″E
temp.,
°C
wind,
m/s
gust,
m/s
humid.,
%
clouds,
%
prec.,
mm/h
press.,
hPa
HPBL,
m
15 may, sat
sat1523:00+21wsw41351100 0.2 1019364
02:00+16ssw227499 0.9 101922
05:00+16wsw3107983 0.9 1019181
08:00+21wsw375656 0.0 1018277
11:00+28sw59315 0.0 10161686
14:00+30wsw71127100 0.0 10152790
17:00+29w611298 0.0 10153004
20:00+26wnw5103773 0.0 1015943
16 may, sun
sun1623:00+19w275752 0.0 1016120
02:00+16w2579100 0.4 101690
05:00+15sw3108490 0.7 1015222
08:00+21wsw4105940 0.0 1015468
11:00+26w5103697 0.0 10161368
14:00+30wnw611215 0.0 10152567
17:00+31w510205 0.0 10153127
20:00+26wsw410305 0.0 1014319
17 may, mon
mon1723:00+23wsw415385 0.0 1015537
02:00+21wsw413505 0.0 1014365
05:00+19wsw4125865 0.0 1014326
08:00+22wsw41050100 0.0 1014444
11:00+28wsw6113360 0.0 10142162
14:00+29w7132691 0.0 10133789
17:00+29wnw612265 0.0 10123590
20:00+25w510345 0.0 1013950
18 may, tue
tue1823:00+19w29490 0.0 1013190
02:00+17wnw39620 0.0 1014244
05:00+15w22680 0.0 101531
08:00+21wsw48500 0.0 1014699
11:00+25wnw5932100 0.0 10133151
14:00+20nnw5955100 0.4 10151400
17:00+16n587233 1.2 10181077
20:00+14n48715 0.0 1020821
19 may, wed
wed1923:00+11nne388138 0.0 1023466
02:00+9nne269143 0.0 1024181
05:00+11nne358153 0.0 1025320
08:00+13ne23635 0.0 1026674
11:00+18e12415 0.0 10251217
14:00+22ese1132100 0.0 10241492
17:00+22sse11308 0.0 10231618
20:00+19sse224394 0.0 102322